Tracking 17560 objects as of 12-February-2016
HD Live streaming from Space Station
objects crossing your sky now

UNHA 3 R/B

Track UNHA 3 R/B now!
10-day predictions


NORAD ID: 39027
Int'l Code: 2012-072B
Perigee: 488.9 km
Apogee: 575.8 km
Inclination: 97.3 °
Period: 95.1 minutes
Semi major axis: 6903 km
RCS: 1.274 m2 (large)
Launch date: December 12, 2012
Source: North Korea (NKOR)
Launch site: Yunsong, DPRK (YUN)

Note: This is a ROCKET BODY
Your satellite tracking list
Your tracking list is empty





NASA's NSSDC Master Catalog

Two Line Element Set (TLE):
1 39027U 12072B   16041.94072629 +.00002048 +00000-0 +11219-3 0  9995
2 39027 097.2743 063.3814 0062940 146.3679 214.1573 15.1359781714251
Source of the keplerian elements: AFSPC

N2YO: 807